Fort Leonard Wood, MO

11:27 PM CDT on May 28, 2017 (GMT -0500)
Waynesville Regional At Forney Field

Weather History for KTBN - September, 2012

Change the Weather History Date:

Saturday, September 29, 2012

  Actual Average Record
Temperature  
Mean Temperature 62 °F -  
Max Temperature 72 °F 73 °F 87 °F (1998)
Min Temperature 51 °F 52 °F 39 °F (2003)
Degree Days  
Heating Degree Days 4    
Growing Degree Days 12 (Base 50)    
Moisture  
Dew Point 53 °F    
Average Humidity 79    
Maximum Humidity 100    
Minimum Humidity 47    
Precipitation  
Precipitation 0.00 in - - ()
Sea Level Pressure  
Sea Level Pressure 30.07 in    
Wind  
Wind Speed 2 mph (NE)    
Max Wind Speed 7 mph    
Max Gust Speed -    
Visibility 10 miles    
Events      
Averages and records for this station are not official NWS values.
T = Trace of Precipitation, MM = Missing Value Source: NWS Daily Summary

Daily Weather History Graph

Daily Weather History Graph

Search for Another Location

Airport or City:

Trip Planner

Search our weather history database for the weather conditions in past years. The results will help you decide how hot, cold, wet, or windy it might be!

Date:

Astronomy

Sep. 29, 2012 Rise Set
Actual Time 7:02 AM CDT 6:53 PM CDT
Civil Twilight 6:36 AM CDT 7:20 PM CDT
Nautical Twilight 6:06 AM CDT 7:50 PM CDT
Astronomical Twilight 5:35 AM CDT 8:21 PM CDT
Moon 6:27 PM CDT 6:34 AM CDT
Length of Visible Light 12h 43m
Length of Day
11h 51m
Full, 100% of the Moon is Illuminated
Sep 29
Full
Sep 29
Full
Oct 8
Last Quarter
Oct 15
New
Oct 21
First Quarter

Hourly Weather History & Observations

Time (CDT) Temp. Dew Point Humidity Pressure Visibility Wind Dir Wind Speed Gust Speed Precip Events Conditions
12:55 AM 56.3 °F 56.3 °F 100% 30.12 in 10.0 mi Calm Calm - N/A   Overcast
1:55 AM 56.5 °F 55.6 °F 97% 30.11 in 10.0 mi East 3.5 mph - N/A   Clear
2:55 AM 55.9 °F 54.1 °F 94% 30.11 in 10.0 mi Calm Calm - N/A   Mostly Cloudy
3:55 AM 52.0 °F 52.0 °F 100% 30.11 in 10.0 mi Calm Calm - N/A   Partly Cloudy
4:55 AM 51.4 °F 51.4 °F 100% 30.10 in 10.0 mi Calm Calm - N/A   Clear
5:55 AM 51.6 °F 51.6 °F 100% 30.11 in 10.0 mi Calm Calm - N/A   Clear
6:55 AM 51.4 °F 51.4 °F 100% 30.12 in 10.0 mi Calm Calm - N/A   Clear
7:55 AM 52.0 °F 52.0 °F 100% 30.13 in 10.0 mi Calm Calm - N/A   Clear
8:55 AM 57.7 °F 52.0 °F 81% 30.13 in 10.0 mi NE 3.5 mph - N/A   Clear
9:55 AM 61.3 °F 51.8 °F 71% 30.14 in 10.0 mi ENE 5.8 mph - N/A   Clear
10:55 AM 64.4 °F 52.7 °F 66% 30.13 in 10.0 mi Variable 3.5 mph - N/A   Clear
11:55 AM 67.6 °F 52.3 °F 58% 30.11 in 10.0 mi ENE 5.8 mph - N/A   Clear
12:55 PM 69.3 °F 51.6 °F 53% 30.08 in 10.0 mi Calm Calm - N/A   Clear
1:55 PM 70.5 °F 52.0 °F 52% 30.05 in 10.0 mi NNE 6.9 mph - N/A   Clear
2:55 PM 72.3 °F 51.3 °F 47% 30.04 in 10.0 mi ENE 6.9 mph - N/A   Clear
3:55 PM 72.0 °F 52.0 °F 49% 30.02 in 10.0 mi ESE 3.5 mph - N/A   Clear
4:55 PM 71.8 °F 53.2 °F 52% 30.01 in 10.0 mi Variable 5.8 mph - N/A   Clear
5:55 PM 70.0 °F 54.0 °F 57% 30.01 in 10.0 mi NNE 4.6 mph - N/A   Clear
6:55 PM 65.1 °F 54.5 °F 68% 30.01 in 10.0 mi NNE 3.5 mph - N/A   Clear
7:55 PM 62.6 °F 52.9 °F 70% 30.01 in 10.0 mi NNE 3.5 mph - N/A   Clear
8:55 PM 56.7 °F 55.0 °F 94% 30.01 in 10.0 mi Calm Calm - N/A   Clear
9:55 PM 55.2 °F 54.1 °F 96% 30.02 in 10.0 mi Calm Calm - N/A   Clear
10:55 PM 53.8 °F 53.6 °F 99% 30.02 in 10.0 mi Calm Calm - N/A   Clear
11:55 PM 54.1 °F 54.1 °F 100% 30.01 in 10.0 mi Calm Calm - N/A   Clear